Location: Newark
(11.2914°S, 14.4718°E)
Time: 21:43:03
(UTC+00:00)

Explorer 7 - Pass Details

Date: 28 September 2019
Orbit: 485 x 680 km, 50.3° (Epoch: 15 October)

Event Time Altitude Azimuth Distance (km) Brightness Sun altitude
Rises 04:22:24 0° 319° (NW) 3,008 10.2 -7.1°
Reaches altitude 10° 04:24:48 10° 318° (NW) 2,086 9.3 -6.5°
Maximum altitude 04:29:37 75° 232° (SW) 677 7.2 -5.3°
Drops below altitude 10° 04:34:17 10° 146° (SSE) 2,012 10.2 -4.2°
Sets 04:36:33 0° 145° (SE) 2,891 11.1 -3.7°
